NOAA NWS Hourly Roundups by Site

Regional Weather Roundup for Omaha, NE

To Select Another Site Choose from List

Select Site:  

000
ASUS43 KOAX 060803
RWRNE

WEATHER ROUNDUP FOR NEBRASKA
NATIONAL WEATHER SERVICE OMAHA NE
300 AM CDT MON APR 06 2020

NOTES: SATELLITE DATA IS BEING USED TO AUGMENT CLOUD COVER ABOVE
       12000 FEET.
       "FAIR" INDICATES FEW OR NO CLOUDS BELOW 12,000 FEET WITH NO
       SIGNIFICANT WEATHER AND/OR OBSTRUCTIONS TO VISIBILITY.


NEZ001>004-019>022-054>056-060900-
NEBRASKA PANHANDLE

CITY           SKY/WX    TMP DP  RH WIND       PRES   REMARKS
SCOTTSBLUFF    FAIR      40  38  93 E7        29.78F
ALLIANCE       FAIR      37  36  96 S5        29.78R WCI  33
CHADRON        FAIR      47  40  76 SW3       29.74F
GORDON         FAIR      44  40  85 SW9       29.78S
KIMBALL        FAIR      37  35  94 NW6       29.80R WCI  32
SIDNEY         FOG       33  32  96 E3        29.77F VSB 1/4
$$

NEZ057>060-069>072-079>082-060900-
SOUTHWEST NEBRASKA

CITY           SKY/WX    TMP DP  RH WIND       PRES   REMARKS
NORTH PLATTE   CLOUDY    44  41  89 SE7       29.79F
IMPERIAL       CLOUDY    37  36  96 N5        29.76F FOG     WCI  33
LEXINGTON      CLOUDY    41  41  99 E6        29.80F FOG
MCCOOK         CLOUDY    45  44  97 SE9       29.75F FOG
OGALLALA       CLOUDY    43  42  96 N5        29.80F
$$

NEZ005>010-023>029-035>040-094-060900-
NORTH CENTRAL NEBRASKA

CITY           SKY/WX    TMP DP  RH WIND       PRES   REMARKS
VALENTINE      FAIR      46  39  76 S9        29.79F
AINSWORTH      FAIR      46  42  87 SW8       29.80F
BROKEN BOW     CLOUDY    44  41  89 E5        29.81F
O`NEILL        MOCLDY    43  40  89 S5        29.83F
ORD            CLOUDY    47  41  80 S7        29.82F HAZE
THEDFORD       CLOUDY    39  39  97 CALM      29.83S
$$

NEZ041-046>049-061>064-073>077-083>087-060900-
SOUTH CENTRAL NEBRASKA

CITY           SKY/WX    TMP DP  RH WIND       PRES   REMARKS
GRAND ISLAND   CLOUDY    50  43  77 S10       29.85F HAZE
AURORA         MOCLDY    51  46  85 S10       29.85F
HASTINGS       CLOUDY    51  45  79 S12       29.84F HAZE
HEBRON         CLOUDY    54  47  78 SE14      29.88F
HOLDREGE       CLOUDY    52  49  87 S14       29.79F
KEARNEY        CLOUDY    46  44  93 SE8       29.82F
YORK           FAIR      50  46  87 S12       29.86F
$$

NEZ011>018-030>034-042>045-060900-
NORTHEAST NEBRASKA

CITY           SKY/WX    TMP DP  RH WIND       PRES   REMARKS
NORFOLK        CLOUDY    51  42  71 S10       29.86F HAZE
ALBION         CLOUDY    51  45  78 SE9       29.84F HAZE
BLAIR          CLOUDY    51  45  82 SE13      29.91F
COLUMBUS       CLOUDY    51  44  77 SE13      29.87F
FREMONT        CLOUDY    52  47  82 SE8       29.90F
TEKAMAH        CLOUDY    50  44  80 SE10      29.91F
WAYNE          CLOUDY    51  43  74 S13       29.88S
$$

NEZ050>053-065>068-078-088>093-060900-
SOUTHEAST NEBRASKA

CITY           SKY/WX    TMP DP  RH WIND       PRES   REMARKS
LINCOLN        CLOUDY    53  45  74 S14       29.91F
OMAHA EPPLEY   CLOUDY    51  45  79 SE13      29.92F
BEATRICE       CLOUDY    54  49  82 S9        29.91F
FALLS CITY     CLOUDY    52  47  83 SE12      29.95F
NEBRASKA CITY  CLOUDY    51  48  90 S12       29.94F
PLATTSMOUTH    CLOUDY    51  46  82 SE14      29.93F
$$

NEZ044-045-051>053-067-060900-
OMAHA AREA

CITY           SKY/WX    TMP DP  RH WIND       PRES   REMARKS
OMAHA EPPLEY   CLOUDY    51  45  79 SE13      29.92F
BLAIR          CLOUDY    51  45  82 SE13      29.91F
FREMONT        CLOUDY    52  47  82 SE8       29.90F
MILLARD        CLOUDY    52  45  77 SE9       29.92F
OFFUTT AFB     CLOUDY    51  45  79 SE12      29.93F
PLATTSMOUTH    CLOUDY    51  46  82 SE14      29.93F
WAHOO          CLOUDY    53  46  77 S15       29.90F
$$



 

View Past Reports for Omaha, NE.

Products Courtesy of NOAA-NWS
NWS Information Parsing Script by Ken True at Saratoga Weather - Script by SE Lincoln Weather.